| time (UTC) | temp F | wind direction | speed knots | gust knots | rain 1hr in | rain 24hr in | rain mn in | humidity % | barometer mb |
| 20260504080440 | 55 | 146 | 0.9 | 0.9 | 0.00 | 0.00 | 0.00 | 47 | 998.4 |
| 20260504070408 | 55 | 171 | 0.9 | 1.7 | 0.00 | 0.00 | 0.00 | 47 | 999.5 |
| 20260504050253 | 50 | 158 | 0.0 | 0.0 | 0.00 | 0.00 | 0.00 | 60 | 1001.8 |
| 20260504045750 | 50 | 158 | 0.0 | 0.0 | 0.00 | 0.00 | 0.00 | 60 | 1002.0 |
| 20260504045250 | 50 | 158 | 0.0 | 0.0 | 0.00 | 0.00 | 0.00 | 63 | 1002.0 |
| 20260504044748 | 50 | 158 | 0.0 | 0.0 | 0.00 | 0.00 | 0.00 | 60 | 1002.1 |
| 20260504044246 | 50 | 158 | 0.0 | 0.0 | 0.00 | 0.00 | 0.00 | 65 | 1002.2 |
| 20260504043743 | 50 | 158 | 0.0 | 0.0 | 0.00 | 0.00 | 0.00 | 62 | 1002.3 |
| 20260504043239 | 50 | 159 | 0.0 | 0.0 | 0.00 | 0.00 | 0.00 | 59 | 1002.3 |
| 20260504042737 | 50 | 159 | 0.0 | 0.0 | 0.00 | 0.00 | 0.00 | 60 | 1002.4 |
| 20260504042233 | 50 | 155 | 0.0 | 0.0 | 0.00 | 0.00 | 0.00 | 65 | 1002.4 |
| 20260504041730 | 50 | 154 | 0.0 | 0.0 | 0.00 | 0.00 | 0.00 | 67 | 1002.4 |
| 20260504041226 | 50 | 152 | 0.0 | 0.0 | 0.00 | 0.00 | 0.00 | 62 | 1002.7 |
| 20260504040722 | 50 | 149 | 0.0 | 0.0 | 0.00 | 0.00 | 0.00 | 57 | 1002.7 |
| 20260504040220 | 50 | 155 | 0.0 | 0.0 | 0.00 | 0.00 | 0.00 | 57 | 1003.0 |
| 20260504035716 | 51 | 154 | 0.0 | 0.0 | 0.00 | 0.00 | 0.00 | 57 | 1003.0 |
| 20260504035213 | 51 | 153 | 0.0 | 0.0 | 0.00 | 0.00 | 0.00 | 56 | 1002.9 |
| 20260504034710 | 51 | 150 | 0.0 | 0.0 | 0.00 | 0.00 | 0.00 | 56 | 1003.1 |
| 20260504034208 | 51 | 154 | 0.0 | 0.0 | 0.00 | 0.00 | 0.00 | 55 | 1003.3 |
| 20260504033705 | 51 | 155 | 0.0 | 0.0 | 0.00 | 0.00 | 0.00 | 55 | 1003.3 |
| 20260504033202 | 51 | 156 | 0.0 | 0.0 | 0.00 | 0.00 | 0.00 | 56 | 1003.5 |
| 20260504032659 | 51 | 154 | 0.0 | 0.0 | 0.00 | 0.00 | 0.00 | 55 | 1003.5 |
| 20260504032156 | 51 | 152 | 0.0 | 0.0 | 0.00 | 0.00 | 0.00 | 55 | 1003.7 |
| 20260504031653 | 51 | 154 | 0.0 | 0.0 | 0.00 | 0.00 | 0.00 | 55 | 1003.8 |
| 20260504031149 | 52 | 154 | 0.0 | 0.0 | 0.00 | 0.00 | 0.00 | 54 | 1003.9 |
| 20260504030646 | 52 | 154 | 0.0 | 0.0 | 0.00 | 0.00 | 0.00 | 54 | 1003.9 |
| 20260504030143 | 52 | 154 | 0.0 | 0.0 | 0.00 | 0.00 | 0.00 | 55 | 1003.9 |
| 20260504025640 | 52 | 154 | 0.0 | 0.0 | 0.00 | 0.00 | 0.00 | 55 | 1004.0 |
| 20260504025136 | 52 | 154 | 0.0 | 0.0 | 0.00 | 0.00 | 0.00 | 55 | 1004.1 |
| 20260504024634 | 53 | 151 | 0.0 | 0.0 | 0.00 | 0.00 | 0.00 | 52 | 1004.1 |
| 20260504024130 | 53 | 153 | 0.0 | 0.0 | 0.00 | 0.00 | 0.00 | 53 | 1003.9 |
| 20260504023627 | 53 | 152 | 0.0 | 0.0 | 0.00 | 0.00 | 0.00 | 58 | 1004.0 |
| 20260504023123 | 53 | 152 | 0.0 | 0.0 | 0.00 | 0.00 | 0.00 | 53 | 1004.0 |
| 20260504022619 | 54 | 152 | 0.0 | 0.0 | 0.00 | 0.00 | 0.00 | 51 | 1004.0 |
| 20260504022115 | 54 | 156 | 0.0 | 0.0 | 0.00 | 0.00 | 0.00 | 51 | 1004.1 |
| 20260504021614 | 55 | 156 | 0.0 | 0.0 | 0.00 | 0.00 | 0.00 | 55 | 1004.1 |
| 20260504021110 | 55 | 154 | 0.0 | 0.0 | 0.00 | 0.00 | 0.00 | 59 | 1003.9 |
| 20260504020607 | 55 | 147 | 0.0 | 0.0 | 0.00 | 0.00 | 0.00 | 54 | 1003.9 |
| 20260504020103 | 56 | 152 | 0.0 | 0.0 | 0.00 | 0.00 | 0.00 | 47 | 1004.1 |
| 20260504015600 | 57 | 157 | 0.0 | 0.0 | 0.00 | 0.00 | 0.00 | 46 | 1003.9 |
| 20260504015055 | 57 | 157 | 0.0 | 0.0 | 0.00 | 0.00 | 0.00 | 50 | 1004.0 |
| 20260504014552 | 58 | 157 | 0.0 | 0.0 | 0.00 | 0.00 | 0.00 | 55 | 1004.0 |
| 20260504014049 | 59 | 156 | 0.0 | 0.0 | 0.00 | 0.00 | 0.00 | 56 | 1004.0 |
| 20260504013547 | 60 | 149 | 0.0 | 0.0 | 0.00 | 0.00 | 0.00 | 51 | 1004.0 |
| 20260504013043 | 60 | 157 | 0.0 | 0.0 | 0.00 | 0.00 | 0.00 | 45 | 1004.1 |
| 20260504012541 | 61 | 158 | 0.0 | 0.0 | 0.00 | 0.00 | 0.00 | 40 | 1004.0 |
| 20260504012039 | 62 | 158 | 0.0 | 0.0 | 0.00 | 0.00 | 0.00 | 39 | 1004.1 |
| 20260504011535 | 63 | 157 | 0.0 | 0.0 | 0.00 | 0.00 | 0.00 | 36 | 1004.0 |
| 20260504011031 | 64 | 162 | 0.0 | 0.0 | 0.00 | 0.00 | 0.00 | 33 | 1003.9 |
| 20260504010527 | 64 | 166 | 0.0 | 0.0 | 0.00 | 0.00 | 0.00 | 33 | 1004.0 |
| 20260504010023 | 65 | 172 | 0.0 | 0.0 | 0.00 | 0.00 | 0.00 | 34 | 1004.2 |
| 20260504005520 | 65 | 143 | 0.0 | 0.9 | 0.00 | 0.00 | 0.00 | 37 | 1004.0 |
| 20260504005018 | 66 | 148 | 0.0 | 0.0 | 0.00 | 0.00 | 0.00 | 34 | 1004.3 |
| 20260504004516 | 66 | 151 | 0.0 | 0.0 | 0.00 | 0.00 | 0.00 | 33 | 1004.1 |
| 20260504004012 | 66 | 146 | 0.0 | 0.0 | 0.00 | 0.00 | 0.00 | 33 | 1004.2 |
| 20260504003508 | 66 | 154 | 0.0 | 0.9 | 0.00 | 0.00 | 0.00 | 36 | 1004.1 |
| 20260504003006 | 66 | 145 | 0.0 | 0.0 | 0.00 | 0.00 | 0.00 | 34 | 1004.3 |
| 20260504002502 | 65 | 109 | 0.9 | 0.9 | 0.00 | 0.00 | 0.00 | 35 | 1004.3 |
| 20260504001959 | 65 | 114 | 0.9 | 0.9 | 0.00 | 0.00 | 0.00 | 38 | 1004.2 |
| 20260504001457 | 66 | 110 | 0.9 | 0.9 | 0.00 | 0.00 | 0.00 | 34 | 1004.3 |
| 20260504000953 | 66 | 129 | 0.9 | 1.7 | 0.00 | 0.00 | 0.00 | 34 | 1004.3 |
| 20260504000450 | 67 | 46 | 1.7 | 2.6 | 0.00 | 0.00 | 0.00 | 30 | 1004.3 |
| 20260503235948 | 68 | 230 | 0.9 | 1.7 | 0.00 | 0.00 | 0.00 | 33 | 1004.3 |
| 20260503235445 | 69 | 147 | 0.9 | 0.9 | 0.00 | 0.00 | 0.00 | 29 | 1004.4 |
| 20260503234942 | 69 | 116 | 0.9 | 0.9 | 0.00 | 0.00 | 0.00 | 35 | 1004.2 |
| 20260503234440 | 71 | 86 | 0.9 | 1.7 | 0.00 | 0.00 | 0.00 | 29 | 1004.3 |
| 20260503233938 | 72 | 72 | 0.9 | 1.7 | 0.00 | 0.00 | 0.00 | 31 | 1004.3 |
| 20260503233434 | 71 | 17 | 1.7 | 1.7 | 0.00 | 0.00 | 0.00 | 28 | 1004.4 |
| 20260503232931 | 71 | 99 | 0.9 | 0.9 | 0.00 | 0.00 | 0.00 | 26 | 1004.4 |
| 20260503232428 | 72 | 100 | 1.7 | 2.6 | 0.00 | 0.00 | 0.00 | 27 | 1004.4 |
| 20260503231926 | 73 | 43 | 2.6 | 2.6 | 0.00 | 0.00 | 0.00 | 27 | 1004.4 |
| 20260503231423 | 73 | 140 | 0.9 | 1.7 | 0.00 | 0.00 | 0.00 | 33 | 1004.7 |
| 20260503230919 | 73 | 106 | 0.9 | 0.9 | 0.00 | 0.00 | 0.00 | 28 | 1004.4 |
| 20260503230416 | 73 | 45 | 1.7 | 1.7 | 0.00 | 0.00 | 0.00 | 31 | 1004.7 |
| 20260503225914 | 72 | 336 | 1.7 | 5.2 | 0.00 | 0.00 | 0.00 | 28 | 1004.7 |
| 20260503225409 | 73 | 23 | 2.6 | 2.6 | 0.00 | 0.00 | 0.00 | 29 | 1004.6 |
| 20260503224906 | 73 | 46 | 1.7 | 1.7 | 0.00 | 0.00 | 0.00 | 30 | 1004.7 |
| 20260503224403 | 73 | 78 | 1.7 | 1.7 | 0.00 | 0.00 | 0.00 | 27 | 1004.7 |
| 20260503223900 | 73 | 101 | 1.7 | 2.6 | 0.00 | 0.00 | 0.00 | 29 | 1004.5 |
| 20260503223358 | 73 | 83 | 1.7 | 1.7 | 0.00 | 0.00 | 0.00 | 35 | 1004.7 |
| 20260503222853 | 73 | 43 | 1.7 | 1.7 | 0.00 | 0.00 | 0.00 | 36 | 1004.8 |
| 20260503222352 | 72 | 46 | 2.6 | 2.6 | 0.00 | 0.00 | 0.00 | 32 | 1004.8 |
| 20260503221850 | 72 | 23 | 3.5 | 3.5 | 0.00 | 0.00 | 0.00 | 32 | 1004.8 |
| 20260503221348 | 73 | 45 | 3.5 | 5.2 | 0.00 | 0.00 | 0.00 | 33 | 1004.8 |
| 20260503220844 | 73 | 55 | 2.6 | 2.6 | 0.00 | 0.00 | 0.00 | 31 | 1004.9 |
| 20260503220341 | 73 | 72 | 1.7 | 1.7 | 0.00 | 0.00 | 0.00 | 30 | 1004.7 |
| 20260503215838 | 73 | 25 | 2.6 | 2.6 | 0.00 | 0.00 | 0.00 | 30 | 1005.0 |
| 20260503215335 | 73 | 152 | 1.7 | 2.6 | 0.00 | 0.00 | 0.00 | 30 | 1005.0 |
| 20260503214833 | 73 | 295 | 3.5 | 3.5 | 0.00 | 0.00 | 0.00 | 28 | 1005.1 |
| 20260503214330 | 74 | 40 | 2.6 | 2.6 | 0.00 | 0.00 | 0.00 | 33 | 1005.0 |
| 20260503213827 | 73 | 35 | 3.5 | 3.5 | 0.00 | 0.00 | 0.00 | 25 | 1004.8 |
| 20260503213325 | 73 | 96 | 1.7 | 2.6 | 0.00 | 0.00 | 0.00 | 24 | 1005.1 |
| 20260503212821 | 73 | 54 | 2.6 | 2.6 | 0.00 | 0.00 | 0.00 | 28 | 1005.0 |
| 20260503212319 | 73 | 41 | 7.8 | 11.3 | 0.00 | 0.00 | 0.00 | 24 | 1005.0 |
| 20260503211816 | 74 | 47 | 3.5 | 3.5 | 0.00 | 0.00 | 0.00 | 32 | 1005.0 |
| 20260503211313 | 74 | 63 | 2.6 | 2.6 | 0.00 | 0.00 | 0.00 | 35 | 1004.9 |
| 20260503210813 | 74 | 94 | 2.6 | 3.5 | 0.00 | 0.00 | 0.00 | 31 | 1005.0 |
| 20260503210311 | 73 | 27 | 2.6 | 2.6 | 0.00 | 0.00 | 0.00 | 33 | 1005.2 |
| 20260503205806 | 74 | 31 | 3.5 | 3.5 | 0.00 | 0.00 | 0.00 | 31 | 1005.1 |
| 20260503205304 | 73 | 26 | 2.6 | 2.6 | 0.00 | 0.00 | 0.00 | 34 | 1005.0 |
| 20260503204759 | 73 | 104 | 1.7 | 1.7 | 0.00 | 0.00 | 0.00 | 27 | 1005.1 |
| 20260503204257 | 73 | 22 | 4.3 | 7.0 | 0.00 | 0.00 | 0.00 | 31 | 1005.0 |
| 20260503203754 | 73 | 78 | 1.7 | 2.6 | 0.00 | 0.00 | 0.00 | 38 | 1005.2 |
| 20260503203251 | 73 | 56 | 3.5 | 3.5 | 0.00 | 0.00 | 0.00 | 35 | 1005.5 |
| 20260503202748 | 73 | 12 | 5.2 | 7.8 | 0.00 | 0.00 | 0.00 | 31 | 1005.3 |
| 20260503202246 | 73 | 60 | 3.5 | 3.5 | 0.00 | 0.00 | 0.00 | 34 | 1005.3 |
| 20260503201744 | 73 | 161 | 0.0 | 0.0 | 0.00 | 0.00 | 0.00 | 27 | 1005.4 |
| 20260503201241 | 72 | 74 | 0.9 | 0.9 | 0.00 | 0.00 | 0.00 | 32 | 1005.5 |
| 20260503200737 | 72 | 34 | 3.5 | 3.5 | 0.00 | 0.00 | 0.00 | 35 | 1005.2 |
| 20260503200233 | 73 | 232 | 2.6 | 3.5 | 0.00 | 0.00 | 0.00 | 28 | 1005.5 |
| 20260503195731 | 72 | 29 | 3.5 | 3.5 | 0.00 | 0.00 | 0.00 | 40 | 1005.4 |
| 20260503195227 | 72 | 51 | 2.6 | 2.6 | 0.00 | 0.00 | 0.00 | 30 | 1005.4 |
| 20260503194726 | 72 | 38 | 4.3 | 7.0 | 0.00 | 0.00 | 0.00 | 30 | 1005.6 |
| 20260503194221 | 72 | 336 | 5.2 | 7.0 | 0.00 | 0.00 | 0.00 | 32 | 1006.0 |
| 20260503193717 | 72 | 94 | 1.7 | 2.6 | 0.00 | 0.00 | 0.00 | 32 | 1005.7 |
| 20260503193213 | 72 | 60 | 2.6 | 5.2 | 0.00 | 0.00 | 0.00 | 33 | 1005.6 |
| 20260503192709 | 72 | 126 | 3.5 | 5.2 | 0.00 | 0.00 | 0.00 | 35 | 1005.6 |
| 20260503192204 | 71 | 30 | 2.6 | 3.5 | 0.00 | 0.00 | 0.00 | 39 | 1005.8 |
| 20260503191701 | 71 | 346 | 2.6 | 5.2 | 0.00 | 0.00 | 0.00 | 36 | 1005.9 |
| 20260503191158 | 71 | 27 | 2.6 | 2.6 | 0.00 | 0.00 | 0.00 | 35 | 1005.7 |
| 20260503190655 | 71 | 36 | 1.7 | 2.6 | 0.00 | 0.00 | 0.00 | 38 | 1005.8 |
| 20260503190152 | 71 | 68 | 3.5 | 5.2 | 0.00 | 0.00 | 0.00 | 37 | 1005.8 |
| 20260503185649 | 70 | 340 | 3.5 | 5.2 | 0.00 | 0.00 | 0.00 | 38 | 1005.9 |
| 20260503185144 | 71 | 65 | 1.7 | 1.7 | 0.00 | 0.00 | 0.00 | 32 | 1005.9 |
| 20260503184639 | 70 | 75 | 2.6 | 3.5 | 0.00 | 0.00 | 0.00 | 33 | 1006.0 |
| 20260503184136 | 70 | 323 | 4.3 | 7.0 | 0.00 | 0.00 | 0.00 | 31 | 1006.0 |
| 20260503183632 | 71 | 123 | 1.7 | 2.6 | 0.00 | 0.00 | 0.00 | 36 | 1006.2 |
| 20260503183130 | 70 | 44 | 2.6 | 2.6 | 0.00 | 0.00 | 0.00 | 43 | 1006.3 |
| 20260503182628 | 71 | 48 | 2.6 | 3.5 | 0.00 | 0.00 | 0.00 | 43 | 1006.2 |
| 20260503182126 | 70 | 44 | 4.3 | 5.2 | 0.00 | 0.00 | 0.00 | 43 | 1006.2 |
| 20260503181622 | 70 | 41 | 3.5 | 5.2 | 0.00 | 0.00 | 0.00 | 41 | 1006.3 |
| 20260503181119 | 70 | 77 | 3.5 | 5.2 | 0.00 | 0.00 | 0.00 | 45 | 1006.4 |
| 20260503180616 | 69 | 161 | 0.9 | 1.7 | 0.00 | 0.00 | 0.00 | 43 | 1006.1 |
| 20260503180114 | 69 | 34 | 2.6 | 2.6 | 0.00 | 0.00 | 0.00 | 40 | 1006.4 |
| 20260503175611 | 69 | 61 | 3.5 | 3.5 | 0.00 | 0.00 | 0.00 | 37 | 1006.2 |
| 20260503175108 | 70 | 38 | 4.3 | 5.2 | 0.00 | 0.00 | 0.00 | 41 | 1006.2 |
| 20260503174605 | 69 | 135 | 0.9 | 1.7 | 0.00 | 0.00 | 0.00 | 44 | 1006.2 |
| 20260503174102 | 69 | 19 | 3.5 | 5.2 | 0.00 | 0.00 | 0.00 | 47 | 1006.5 |
| 20260503173556 | 69 | 33 | 4.3 | 5.2 | 0.00 | 0.00 | 0.00 | 47 | 1006.2 |
| 20260503173053 | 69 | 48 | 2.6 | 2.6 | 0.00 | 0.00 | 0.00 | 47 | 1006.4 |
| 20260503172550 | 69 | 164 | 1.7 | 2.6 | 0.00 | 0.00 | 0.00 | 40 | 1006.3 |
| 20260503172048 | 69 | 29 | 5.2 | 7.0 | 0.00 | 0.00 | 0.00 | 39 | 1006.4 |
| 20260503171544 | 69 | 145 | 0.0 | 0.9 | 0.00 | 0.00 | 0.00 | 38 | 1006.4 |
| 20260503171041 | 69 | 208 | 2.6 | 2.6 | 0.00 | 0.00 | 0.00 | 40 | 1006.6 |
| 20260503170538 | 68 | 25 | 2.6 | 3.5 | 0.00 | 0.00 | 0.00 | 48 | 1006.4 |
| 20260503150930 | 64 | 145 | 0.9 | 1.7 | 0.00 | 0.00 | 0.00 | 49 | 1006.2 |
| 20260503150427 | 63 | 125 | 0.0 | 0.9 | 0.00 | 0.00 | 0.00 | 46 | 1006.2 |
| 20260503131320 | 58 | 161 | 0.0 | 0.0 | 0.00 | 0.00 | 0.00 | 50 | 1005.7 |
| 20260503130817 | 58 | 177 | 0.9 | 0.9 | 0.00 | 0.00 | 0.00 | 48 | 1005.8 |
| 20260503130315 | 57 | 157 | 0.0 | 0.0 | 0.00 | 0.00 | 0.00 | 51 | 1005.5 |
| 20260503110708 | 51 | 152 | 0.0 | 0.0 | 0.00 | 0.00 | 0.00 | 56 | 1004.7 |
| 20260503110205 | 52 | 164 | 0.0 | 0.9 | 0.00 | 0.00 | 0.00 | 53 | 1004.8 |
| 20260503100132 | 55 | 170 | 1.7 | 2.6 | 0.00 | 0.00 | 0.00 | 47 | 1005.3 |
| 20260503081521 | 55 | 163 | 0.0 | 0.9 | 0.00 | 0.00 | 0.00 | 54 | 1005.7 |
| 20260503081019 | 55 | 168 | 0.9 | 0.9 | 0.00 | 0.00 | 0.00 | 53 | 1006.0 |